Location: Kapla
(46.2483°N, 15.0094°E)
Time: 14:58:21
(UTC+00:00)

USA 305 - Pass Details

Date: 03 March 2021
Orbit: 567 x 574 km, 54.0° (Epoch: 17 April)

Event Time Altitude Azimuth Distance (km) Brightness Sun altitude
Rises 18:06:25 0° 284° (WNW) 2,780 8.3 -14.1°
Reaches altitude 10° 18:08:55 10° 296° (WNW) 1,880 6.7 -14.6°
Maximum altitude 18:12:39 29° 357° (N) 1,076 4.4 -15.2°
Enters shadow 18:15:13 16° 48° (NE) 1,509 4.7 -15.7°
